Location: Brno
(49.2000°N, 16.6330°E)
Time: 13:06:14
(UTC+02:00)

Cosmos 1603 - Visible Passes

Search period start: 24 May 2015 00:00
Search period end: 03 June 2015 00:00
Orbit: 830 x 861 km, 71.0° (Epoch: 23 May)

Date Brightness Start Highest point End Pass type
(mag) Time Alt. Az. Time Alt. Az. Time Alt. Az.
24 May 3.7 01:40:41 35° SSW 01:43:08 74° ESE 01:48:54 10° NNE visible
24 May 5.3 03:23:07 10° W 03:27:55 26° NW 03:32:40 10° NNE visible
24 May 5.7 23:45:02 12° ESE 23:46:02 12° E 23:48:23 10° ENE visible
25 May 3.7 01:26:54 36° S 01:29:15 72° ESE 01:35:01 10° NNE visible
25 May 5.3 03:09:12 10° W 03:14:01 26° NW 03:18:48 10° NNE visible
25 May 5.7 23:31:13 11° ESE 23:32:11 12° E 23:34:21 10° ENE visible
26 May 3.7 01:13:05 37° S 01:15:23 71° ESE 01:21:09 10° NNE visible
26 May 5.3 02:55:16 10° WSW 03:00:07 27° NW 03:04:56 10° NNE visible
26 May 5.7 23:17:22 11° ESE 23:18:20 11° E 23:20:17 10° ENE visible
27 May 3.7 00:59:14 37° S 01:01:31 69° ESE 01:07:16 10° NNE visible
27 May 5.3 02:41:20 10° WSW 02:46:13 28° NW 02:51:06 10° NNE visible
27 May 5.7 23:03:28 10° ESE 23:04:29 11° E 23:06:12 10° ENE visible
28 May 3.8 00:45:20 36° S 00:47:39 67° ESE 00:53:23 10° NNE visible
28 May 5.3 02:27:24 10° WSW 02:32:20 28° NW 02:37:14 10° NNE visible
28 May 5.7 22:49:36 10° ESE 22:50:38 11° E 22:52:02 10° E visible
29 May 3.8 00:31:23 35° S 00:33:47 65° ESE 00:39:31 10° NNE visible
29 May 5.3 02:13:29 10° WSW 02:18:26 29° NW 02:23:22 10° NNE visible
29 May 6.5 04:04:09 10° NNW 04:04:44 10° NNW 04:05:11 10° NNW visible
29 May 5.7 22:36:11 10° ESE 22:36:47 10° E 22:37:46 10° E visible
30 May 3.8 00:17:24 33° S 00:19:55 63° ESE 00:25:38 10° NNE visible
30 May 5.3 01:59:33 10° WSW 02:04:32 29° NW 02:09:31 10° NNE visible
30 May 6.4 03:49:58 10° NNW 03:50:49 10° NNW 03:51:32 10° NNW visible
31 May 3.8 00:03:21 31° S 00:06:03 62° ESE 00:11:45 10° NE visible
31 May 5.3 01:45:37 10° WSW 01:50:39 30° NW 01:55:39 10° NNE visible
31 May 6.5 03:35:51 10° NNW 03:36:54 10° NNW 03:37:49 10° N visible
31 May 3.8 23:49:14 28° S 23:52:11 60° ESE 23:57:52 10° NE visible
01 Jun 5.3 01:31:42 10° WSW 01:36:45 30° NW 01:41:48 10° NNE visible
01 Jun 6.5 03:21:46 10° NNW 03:22:59 11° NNW 03:24:03 10° N visible
01 Jun 3.8 23:35:03 25° S 23:38:19 58° ESE 23:43:59 10° NE visible
02 Jun 5.3 01:17:46 10° WSW 01:22:52 31° NW 01:27:56 10° NNE visible
02 Jun 6.5 03:07:43 10° NW 03:09:04 11° NNW 03:10:17 10° N visible
02 Jun 3.9 23:20:46 21° S 23:24:27 57° ESE 23:30:06 10° NE visible
